TimeCDT,TemperatureF,Dew PointF,Humidity,Sea Level PressureIn,VisibilityMPH,Wind Direction,Wind SpeedMPH,Gust SpeedMPH,PrecipitationIn,Events,Conditions,WindDirDegrees,DateUTC
12:15 AM,79.2,76.1,90,29.98,10.0,ESE,3.5,-,N/A,,Overcast,110,2013-09-29 05:15:00
12:35 AM,79.7,76.6,90,29.98,5.0,Calm,Calm,-,N/A,Thunderstorm,Overcast,0,2013-09-29 05:35:00
12:55 AM,80.1,77.0,90,29.99,5.0,Calm,Calm,-,N/A,,Overcast,0,2013-09-29 05:55:00
1:15 AM,79.9,77.0,91,29.99,4.0,Calm,Calm,-,N/A,,Overcast,0,2013-09-29 06:15:00
1:35 AM,80.1,77.2,91,29.99,4.0,Calm,Calm,-,N/A,,Mostly Cloudy,0,2013-09-29 06:35:00
1:55 AM,80.1,77.2,91,29.99,5.0,ESE,3.5,-,N/A,,Overcast,120,2013-09-29 06:55:00
2:15 AM,79.9,77.0,91,29.99,5.0,Calm,Calm,-,N/A,Thunderstorm,Overcast,0,2013-09-29 07:15:00
2:35 AM,79.9,77.0,91,29.99,5.0,Calm,Calm,-,N/A,Thunderstorm,Mostly Cloudy,0,2013-09-29 07:35:00
2:55 AM,79.7,77.0,91,29.99,5.0,Calm,Calm,-,N/A,Thunderstorm,Scattered Clouds,0,2013-09-29 07:55:00
3:15 AM,79.9,77.0,91,29.98,5.0,Calm,Calm,-,0.01,,Mostly Cloudy,0,2013-09-29 08:15:00
3:35 AM,79.7,77.0,91,29.97,4.0,Calm,Calm,-,0.01,Thunderstorm,Overcast,0,2013-09-29 08:35:00
3:55 AM,79.7,77.0,91,29.96,2.0,Calm,Calm,-,0.01,Thunderstorm,Overcast,0,2013-09-29 08:55:00
4:15 AM,79.7,77.0,91,29.96,4.0,Calm,Calm,-,N/A,,Overcast,0,2013-09-29 09:15:00
4:35 AM,79.7,77.0,91,29.98,5.0,Calm,Calm,-,N/A,,Overcast,0,2013-09-29 09:35:00
4:55 AM,79.7,77.0,91,29.97,5.0,Calm,Calm,-,N/A,,Mostly Cloudy,0,2013-09-29 09:55:00
5:15 AM,79.7,77.0,91,29.96,2.0,NE,3.5,-,0.08,Rain-Thunderstorm,Heavy Thunderstorms and Rain,50,2013-09-29 10:15:00
5:35 AM,79.3,76.6,91,29.96,7.0,Calm,Calm,-,0.18,Rain-Thunderstorm,Light Thunderstorms and Rain,0,2013-09-29 10:35:00
5:55 AM,79.0,76.1,91,29.96,10.0,South,3.5,-,0.21,Rain-Thunderstorm,Light Thunderstorms and Rain,170,2013-09-29 10:55:00
6:15 AM,79.5,76.6,91,29.96,7.0,NNW,5.8,-,N/A,,Light Drizzle,330,2013-09-29 11:15:00
6:35 AM,79.2,76.3,91,29.97,1.2,Calm,Calm,-,0.26,Rain-Thunderstorm,Heavy Thunderstorms and Rain,0,2013-09-29 11:35:00
6:55 AM,78.3,75.0,90,29.98,7.0,ENE,9.2,-,0.58,Rain-Thunderstorm,Light Thunderstorms and Rain,70,2013-09-29 11:55:00
7:15 AM,77.0,73.8,90,29.97,10.0,NE,3.5,-,N/A,Rain-Thunderstorm,Light Thunderstorms and Rain,40,2013-09-29 12:15:00
7:35 AM,77.2,74.3,91,29.98,7.0,ENE,4.6,-,0.03,Rain-Thunderstorm,Light Thunderstorms and Rain,70,2013-09-29 12:35:00
7:55 AM,75.9,72.9,90,29.97,7.0,East,10.4,16.1,0.06,Rain-Thunderstorm,Light Thunderstorms and Rain,80,2013-09-29 12:55:00
8:15 AM,77.0,73.8,90,30.01,1.5,NW,10.4,-,0.39,Rain,Heavy Rain,310,2013-09-29 13:15:00
8:35 AM,76.1,73.0,90,30.01,5.0,NNW,4.6,-,0.66,Rain-Thunderstorm,Heavy Thunderstorms and Rain,340,2013-09-29 13:35:00
8:55 AM,76.1,72.9,90,30.00,10.0,North,4.6,-,0.67,Rain,Rain,360,2013-09-29 13:55:00
9:15 AM,75.7,72.9,91,30.01,7.0,NNE,3.5,-,0.03,Rain,Rain,20,2013-09-29 14:15:00
9:35 AM,75.2,72.1,90,30.02,10.0,WNW,8.1,-,0.05,Rain,Light Rain,300,2013-09-29 14:35:00
9:55 AM,73.8,70.9,91,30.02,10.0,NW,11.5,-,0.05,Rain,Light Rain,320,2013-09-29 14:55:00
10:15 AM,73.4,70.7,91,30.02,10.0,NW,11.5,-,N/A,,Overcast,310,2013-09-29 15:15:00
10:35 AM,73.8,70.9,91,30.03,10.0,WNW,8.1,-,N/A,,Overcast,300,2013-09-29 15:35:00
10:55 AM,73.9,71.1,91,30.02,7.0,NNW,10.4,-,N/A,,Overcast,330,2013-09-29 15:55:00
11:15 AM,73.9,70.9,90,30.03,7.0,NW,9.2,-,N/A,,Overcast,320,2013-09-29 16:15:00
11:35 AM,74.1,71.1,90,30.02,7.0,North,8.1,-,N/A,,Overcast,350,2013-09-29 16:35:00
11:55 AM,75.7,72.3,89,30.02,7.0,North,8.1,-,N/A,,Overcast,350,2013-09-29 16:55:00
12:15 PM,75.9,71.6,86,30.02,7.0,NNW,5.8,-,N/A,,Overcast,340,2013-09-29 17:15:00
12:35 PM,76.5,72.0,86,30.01,7.0,North,8.1,-,N/A,,Overcast,350,2013-09-29 17:35:00
12:55 PM,76.3,71.6,85,30.00,10.0,North,8.1,-,N/A,,Overcast,360,2013-09-29 17:55:00
1:15 PM,76.5,71.8,85,30.00,10.0,North,5.8,-,N/A,,Overcast,350,2013-09-29 18:15:00
1:35 PM,76.8,71.6,84,29.99,10.0,North,6.9,-,N/A,,Overcast,10,2013-09-29 18:35:00
1:55 PM,77.7,71.8,82,29.98,10.0,North,3.5,-,N/A,,Overcast,10,2013-09-29 18:55:00
2:15 PM,78.6,72.1,80,29.97,10.0,NNW,5.8,-,N/A,,Overcast,330,2013-09-29 19:15:00
2:35 PM,78.4,71.6,79,29.96,10.0,NW,4.6,-,N/A,,Overcast,310,2013-09-29 19:35:00
2:55 PM,78.8,71.8,79,29.96,10.0,NW,4.6,-,N/A,,Overcast,320,2013-09-29 19:55:00
3:15 PM,79.0,71.6,78,29.95,10.0,WNW,5.8,-,N/A,,Overcast,300,2013-09-29 20:15:00
3:35 PM,79.9,72.0,77,29.94,10.0,NW,4.6,-,N/A,,Overcast,310,2013-09-29 20:35:00
3:55 PM,79.7,71.6,76,29.94,10.0,NW,5.8,-,N/A,,Overcast,310,2013-09-29 20:55:00
4:15 PM,79.2,71.6,78,29.94,10.0,NW,6.9,-,N/A,,Overcast,320,2013-09-29 21:15:00
4:35 PM,79.2,71.4,77,29.94,10.0,NW,6.9,-,N/A,,Mostly Cloudy,310,2013-09-29 21:35:00
4:55 PM,79.0,71.4,78,29.93,10.0,NW,4.6,-,N/A,,Scattered Clouds,310,2013-09-29 21:55:00
5:15 PM,79.3,71.8,78,29.93,10.0,NNW,4.6,-,N/A,,Clear,330,2013-09-29 22:15:00
5:35 PM,79.0,71.6,78,29.93,10.0,NW,3.5,-,N/A,,Scattered Clouds,320,2013-09-29 22:35:00
5:55 PM,79.3,71.8,78,29.93,10.0,WNW,4.6,-,N/A,,Scattered Clouds,290,2013-09-29 22:55:00
6:15 PM,79.3,71.6,77,29.93,10.0,NW,4.6,-,N/A,,Mostly Cloudy,320,2013-09-29 23:15:00
6:35 PM,79.2,71.6,78,29.93,10.0,WNW,5.8,-,N/A,,Scattered Clouds,300,2013-09-29 23:35:00
6:55 PM,78.4,71.6,79,29.92,10.0,NNW,3.5,-,N/A,,Clear,340,2013-09-29 23:55:00
7:15 PM,78.1,71.8,81,29.93,10.0,NW,3.5,-,N/A,,Scattered Clouds,320,2013-09-30 00:15:00
7:35 PM,77.0,71.8,84,29.93,10.0,NW,3.5,-,N/A,,Clear,320,2013-09-30 00:35:00
7:55 PM,76.3,71.6,85,29.93,7.0,NNW,3.5,-,N/A,,Scattered Clouds,330,2013-09-30 00:55:00
8:15 PM,76.3,71.8,86,29.94,7.0,NNW,3.5,-,N/A,,Mostly Cloudy,330,2013-09-30 01:15:00
8:35 PM,76.1,71.6,86,29.94,7.0,NNW,3.5,-,N/A,,Scattered Clouds,330,2013-09-30 01:35:00
8:55 PM,75.7,71.2,86,29.95,10.0,NNW,3.5,-,N/A,,Clear,340,2013-09-30 01:55:00
9:15 PM,75.4,71.1,86,29.94,10.0,Calm,Calm,-,N/A,,Clear,0,2013-09-30 02:15:00
9:35 PM,75.2,71.1,87,29.94,7.0,Calm,Calm,-,N/A,,Clear,0,2013-09-30 02:35:00
9:55 PM,75.2,71.1,87,29.95,7.0,Calm,Calm,-,N/A,,Clear,0,2013-09-30 02:55:00
10:15 PM,74.8,71.1,88,29.95,7.0,Calm,Calm,-,N/A,,Clear,0,2013-09-30 03:15:00
10:35 PM,74.5,71.1,89,29.95,5.0,WNW,3.5,-,N/A,,Clear,290,2013-09-30 03:35:00
10:55 PM,74.3,71.1,90,29.95,5.0,Calm,Calm,-,N/A,,Scattered Clouds,0,2013-09-30 03:55:00
11:15 PM,74.3,71.1,90,29.95,7.0,Calm,Calm,-,N/A,,Mostly Cloudy,0,2013-09-30 04:15:00
11:35 PM,73.8,70.7,90,29.95,4.0,Calm,Calm,-,N/A,,Scattered Clouds,0,2013-09-30 04:35:00
11:55 PM,73.8,70.9,91,29.95,5.0,Calm,Calm,-,N/A,,Scattered Clouds,0,2013-09-30 04:55:00